Wind_Speed
15 15 16 17 17 17 16 13 11 11 10 9 7 5 5 6 8 9 10 10 10 11 10 10 9 9 8 7 6 6 6 6 6 5 6 5 5 5 6 5 6 5 5
15 15 16 17 17 17 16 14 12 11 11 10 8 6 6 6 7 8 10 11 11 11 11 11 10 9 9 8 7 7 7 7 7 7 6 7 7 7 8 8 8 8 7
15 15 15 16 17 17 16 15 13 12 11 11 10 8 7 7 7 8 9 11 11 11 12 12 11 10 10 9 9 9 9 8 8 8 8 8 9 9 9 8 9 9 9
16 16 15 16 17 17 17 15 14 13 12 11 10 9 8 7 8 9 9 10 11 12 12 12 12 11 11 10 10 10 10 10 9 9 9 9 9 10 9 9 10 10 10
16 16 15 15 16 17 17 16 15 14 13 12 10 9 8 7 7 8 9 9 11 12 13 13 13 12 12 11 11 11 11 10 10 10 11 11 11 11 12 12 11 11 12
16 16 15 15 16 17 16 16 15 14 14 13 11 9 8 8 7 8 9 10 10 11 12 12 13 13 12 12 12 12 12 11 12 12 12 12 12 12 13 13 13 14 14
15 14 13 14 15 16 16 16 15 14 14 13 12 10 10 9 8 9 9 10 10 11 12 12 13 14 13 13 13 13 13 13 13 13 13 13 14 14 14 14 15 16 16
14 12 13 14 16 16 17 16 16 15 14 13 12 11 10 10 9 10 9 9 10 11 11 12 13 14 15 15 14 14 14 14 14 15 15 15 15 16 15 16 16 17 17
14 12 13 14 15 16 17 16 16 16 15 13 12 12 11 10 10 10 9 9 9 10 11 12 13 14 14 15 15 15 15 15 15 15 15 16 16 16 16 17 18 18 19
13 13 14 15 16 16 16 16 16 16 15 14 13 12 12 11 10 10 9 8 8 9 11 12 13 13 13 14 14 15 15 16 16 16 16 16 16 17 18 18 19 19 19
15 14 14 15 16 16 16 17 16 16 15 14 13 13 12 11 10 10 9 9 8 8 9 11 13 13 13 14 13 14 14 15 16 17 17 17 18 18 19 19 20 20 20
15 15 14 15 16 16 16 17 17 16 15 15 14 14 13 11 10 10 10 9 9 9 10 11 12 13 14 14 15 15 15 16 17 18 18 19 19 19 20 20 20 21 21
16 16 15 15 16 16 17 17 17 16 16 15 15 14 14 12 11 11 10 10 11 11 11 12 13 13 14 15 16 16 16 17 18 19 19 20 20 20 21 21 22 22 23
16 17 17 17 16 16 17 17 17 17 16 16 16 15 14 13 12 12 11 12 12 12 13 13 14 15 16 17 17 17 18 19 19 20 21 21 21 21 22 23 23 24 24
18 18 17 17 17 17 17 18 18 18 17 17 17 16 15 14 14 14 13 14 14 14 14 14 15 16 17 17 18 19 20 20 21 21 21 21 22 23 24 24 24 24 25
20 19 17 17 17 18 18 18 18 18 18 18 18 18 17 16 16 16 15 16 15 15 15 15 17 18 18 18 20 20 20 20 21 22 22 23 23 24 25 25 25 26 27
21 20 19 18 19 19 19 19 19 19 19 19 19 19 18 18 18 17 17 17 17 17 17 18 18 18 18 19 20 20 20 21 21 22 23 24 25 25 26 26 27 27 27
23 21 21 21 21 21 21 21 21 21 21 21 20 20 20 20 19 19 19 19 19 19 19 19 19 20 20 20 21 21 22 22 23 24 24 25 26 27 27 27 28 28 28
25 24 23 23 23 23 23 23 22 22 22 22 22 22 22 22 22 21 21 20 20 20 20 20 21 21 22 22 23 23 24 24 24 25 26 27 27 28 28 28 29 29 30
26 26 26 26 26 25 25 25 24 24 24 24 24 24 24 24 24 23 22 22 21 21 21 22 22 23 24 24 25 25 25 26 26 26 27 27 28 28 29 30 30 31 31
28 29 28 28 28 28 27 27 26 26 27 26 26 26 26 26 26 25 25 24 23 23 24 24 24 24 24 25 26 26 27 27 27 28 28 29 29 29 30 31 31 32 32
31 31 31 31 31 30 30 29 29 29 29 29 29 29 29 28 28 27 26 26 26 26 26 26 26 25 25 26 26 27 27 28 29 29 29 30 31 31 32 33 33 33 33
34 34 33 33 33 32 32 31 31 31 31 31 31 31 31 31 30 29 29 29 29 28 28 28 28 28 27 28 28 29 29 30 31 31 31 32 32 32 32 33 33 33 34
36 36 35 34 34 33 33 33 33 33 33 33 33 32 32 32 31 31 31 31 31 31 30 30 31 31 30 30 31 31 32 32 32 33 33 33 33 33 32 33 33 34 34
38 37 37 36 35 35 34 34 34 34 34 34 33 33 33 33 33 33 33 33 33 33 33 33 34 33 33 33 33 34 34 34 34 34 34 34 34 34 34 35 35 35 35
39 38 38 37 37 36 36 36 36 36 36 36 35 34 34 34 34 34 34 34 34 35 35 35 35 35 35 35 36 36 36 36 36 36 36 36 36 36 36 36 37 36 36
Wind_Direction
356 358 359 356 354 354 353 352 344 341 341 338 326 314 294 267 252 242 236 233 234 233 233 234 235 239 242 246 253 255 255 258 255 254 255 260 268 271 272 271 276 277 285
352 355 354 353 353 353 353 351 346 340 339 336 333 317 293 278 264 253 240 235 237 236 235 233 234 237 239 241 251 258 260 260 256 256 261 263 266 268 271 273 276 281 282
349 351 349 350 351 351 351 349 344 341 339 335 329 319 291 280 270 256 243 237 237 236 235 234 236 240 240 243 251 259 262 264 262 261 263 264 264 272 272 273 276 278 279
342 345 346 347 346 347 347 345 342 338 336 331 325 318 306 290 271 254 245 240 237 235 235 234 235 239 243 247 254 262 263 265 264 263 265 270 273 277 278 278 278 279 281
333 338 341 343 344 345 345 343 340 337 335 334 326 316 310 298 283 260 249 245 241 238 238 236 236 242 246 251 258 265 266 266 267 267 267 272 276 278 279 280 282 281 280
325 331 336 339 341 342 342 340 338 336 335 332 328 321 314 304 290 271 254 250 244 241 239 239 241 247 248 251 257 262 267 270 269 269 270 274 278 282 280 281 282 283 282
320 323 331 338 340 340 340 339 338 336 334 332 328 320 312 300 291 284 272 260 250 245 243 242 246 248 247 251 256 261 266 269 270 269 271 271 274 280 279 281 283 284 284
318 324 332 337 338 339 339 339 339 337 334 331 326 322 313 301 293 288 280 273 261 251 250 248 251 251 252 255 257 261 265 269 269 270 271 271 272 276 278 280 283 285 286
318 324 331 333 336 338 338 338 338 338 337 334 328 322 315 306 299 290 282 279 273 262 253 252 254 255 256 258 259 262 264 269 272 272 274 275 275 276 279 282 283 283 284
316 322 326 329 331 333 336 335 335 335 334 334 332 325 318 312 304 293 285 283 277 269 259 256 257 258 259 264 265 264 268 271 271 273 277 278 280 281 281 283 283 283 282
311 316 320 324 329 331 333 333 332 332 331 331 332 329 321 313 307 297 289 287 281 274 268 264 262 260 261 264 266 270 273 273 276 277 277 278 282 284 285 285 285 284 284
304 309 314 321 324 328 330 332 332 332 330 329 329 329 327 319 310 306 297 291 285 280 276 273 270 264 263 265 267 271 275 277 277 278 280 281 282 283 285 285 285 286 288
299 304 310 318 321 324 327 330 331 331 330 328 327 327 326 321 315 309 300 295 290 286 284 280 273 270 270 270 273 275 276 277 278 279 280 282 282 283 285 285 285 286 287
298 303 306 312 317 321 324 327 329 331 330 328 327 325 322 319 314 307 299 295 291 289 289 284 278 276 273 272 275 278 279 279 281 281 283 283 282 283 284 285 286 287 288
294 298 301 305 311 317 320 322 324 327 328 327 326 325 321 318 311 303 298 295 293 290 290 286 283 280 277 276 279 280 280 281 282 283 283 284 284 284 284 286 288 289 288
289 292 295 299 304 310 314 318 319 322 324 324 322 322 319 315 312 303 297 295 294 292 290 292 288 283 280 280 280 283 284 285 285 285 285 285 285 286 286 287 288 289 288
284 284 290 295 299 304 307 310 313 315 317 319 319 319 318 315 312 307 299 296 294 293 290 291 292 289 287 285 284 285 285 287 287 287 288 288 286 287 288 288 290 292 291
280 283 287 290 295 299 302 304 306 309 311 312 313 314 315 314 311 307 303 300 295 292 293 293 292 292 289 287 285 285 286 286 287 287 288 288 288 287 288 290 291 292 293
278 281 283 286 290 294 297 300 302 304 305 307 308 309 310 311 310 309 306 302 297 293 292 292 294 295 294 291 288 286 286 287 288 288 289 289 289 289 289 291 292 293 292
276 278 280 283 286 290 292 295 297 299 301 302 303 302 303 304 304 304 304 302 300 297 294 293 292 293 293 292 291 289 288 287 288 289 290 290 290 290 290 291 292 291 291
275 276 278 281 283 286 289 290 293 294 296 298 299 300 300 300 300 300 298 296 297 296 295 294 293 293 292 291 289 289 288 287 287 288 289 289 290 290 290 291 291 291 291
275 276 278 279 280 282 284 287 289 291 292 293 295 296 297 298 298 298 296 295 295 295 294 293 293 293 292 291 291 290 290 288 288 289 289 290 290 290 289 290 290 290 290
274 276 277 277 278 279 281 284 286 287 289 290 292 293 293 295 296 294 293 292 293 293 293 291 291 291 291 292 292 291 290 290 290 290 291 291 291 291 290 290 290 291 290
272 274 276 277 277 277 279 281 283 284 286 287 289 290 291 292 293 292 291 290 291 291 291 291 290 290 290 290 290 290 290 290 291 291 292 292 292 291 291 291 291 290 289
270 272 274 275 275 276 278 280 282 283 284 286 288 288 289 290 291 291 290 290 289 289 290 290 290 290 290 290 290 290 290 290 291 291 292 291 291 290 290 290 290 290 289
268 271 272 274 274 274 276 278 281 281 282 284 285 286 287 288 289 290 290 290 290 289 289 289 289 290 290 291 291 291 290 290 290 291 291 291 291 290 289 290 290 290 289
Height
5917 5914 5912 5910 5908 5905 5903 5902 5900 5899 5897 5896 5896 5895 5895 5896 5897 5898 5899 5900 5902 5903 5905 5906 5908 5909 5910 5911 5912 5912 5913 5913 5913 5914 5914 5914 5915 5915 5915 5915 5915 5915 5916
5916 5915 5913 5910 5908 5906 5903 5901 5900 5898 5897 5896 5895 5895 5895 5895 5895 5896 5897 5899 5900 5901 5903 5905 5906 5907 5908 5910 5910 5911 5912 5912 5912 5912 5913 5913 5914 5913 5913 5914 5914 5914 5914
5916 5915 5913 5911 5908 5906 5903 5901 5900 5898 5897 5896 5895 5894 5893 5894 5894 5895 5896 5897 5898 5899 5901 5903 5904 5906 5907 5908 5909 5909 5910 5910 5911 5911 5911 5912 5912 5912 5912 5912 5912 5912 5912
5916 5915 5912 5911 5908 5906 5903 5901 5899 5898 5896 5895 5894 5893 5892 5892 5892 5893 5894 5895 5896 5898 5899 5901 5902 5904 5905 5906 5907 5907 5908 5908 5909 5909 5909 5910 5910 5910 5910 5910 5910 5910 5910
5916 5914 5912 5910 5908 5906 5903 5901 5899 5897 5895 5894 5893 5892 5891 5891 5891 5891 5892 5893 5894 5896 5897 5898 5900 5901 5903 5904 5904 5905 5905 5906 5906 5906 5907 5907 5907 5907 5907 5907 5908 5908 5907
5915 5913 5911 5910 5908 5905 5903 5901 5899 5897 5895 5893 5892 5891 5890 5890 5890 5890 5891 5891 5893 5894 5895 5897 5898 5899 5900 5901 5902 5903 5903 5903 5904 5904 5904 5904 5904 5904 5904 5905 5905 5905 5905
5915 5912 5910 5909 5907 5905 5903 5900 5898 5896 5894 5892 5891 5890 5889 5888 5888 5888 5888 5889 5890 5892 5893 5894 5895 5896 5898 5899 5899 5900 5900 5900 5901 5901 5901 5901 5901 5902 5901 5901 5901 5901 5901
5913 5911 5909 5908 5906 5904 5902 5900 5898 5895 5893 5891 5890 5889 5887 5887 5887 5886 5886 5887 5888 5889 5890 5891 5892 5893 5894 5895 5896 5897 5897 5897 5897 5897 5898 5898 5898 5898 5898 5898 5897 5897 5897
5911 5910 5908 5907 5905 5903 5901 5899 5897 5895 5892 5890 5889 5887 5886 5885 5885 5885 5885 5885 5885 5886 5887 5888 5889 5890 5891 5892 5892 5893 5893 5894 5894 5894 5894 5894 5894 5894 5894 5894 5893 5893 5893
5910 5908 5907 5906 5904 5903 5901 5898 5896 5894 5892 5890 5888 5886 5885 5884 5883 5883 5883 5883 5883 5883 5884 5885 5886 5887 5888 5888 5889 5889 5890 5890 5890 5890 5890 5890 5890 5890 5890 5889 5889 5888 5888
5907 5906 5905 5905 5903 5902 5900 5898 5896 5893 5891 5889 5887 5885 5884 5882 5881 5881 5881 5881 5881 5881 5882 5882 5883 5884 5884 5885 5886 5886 5886 5886 5886 5886 5886 5886 5885 5885 5885 5884 5884 5883 5882
5906 5904 5904 5903 5902 5900 5898 5896 5894 5892 5890 5888 5886 5884 5883 5881 5880 5879 5879 5879 5879 5879 5879 5880 5880 5880 5881 5882 5882 5882 5882 5883 5882 5882 5882 5881 5881 5880 5880 5879 5878 5878 5877
5905 5903 5901 5901 5900 5899 5897 5895 5893 5891 5889 5887 5885 5884 5882 5880 5879 5878 5878 5877 5877 5877 5877 5877 5877 5877 5878 5878 5878 5878 5878 5878 5878 5877 5877 5876 5876 5875 5875 5874 5873 5872 5871
5902 5901 5900 5899 5898 5897 5895 5893 5892 5890 5888 5886 5884 5882 5881 5879 5878 5877 5876 5875 5875 5874 5874 5874 5874 5874 5874 5874 5874 5874 5874 5874 5873 5873 5872 5871 5870 5870 5869 5868 5867 5866 5865
5900 5899 5898 5897 5896 5895 5893 5892 5890 5888 5886 5884 5882 5881 5879 5877 5876 5875 5874 5873 5872 5871 5871 5870 5870 5870 5869 5869 5869 5869 5869 5869 5868 5867 5867 5866 5865 5864 5863 5862 5861 5860 5859
5897 5896 5895 5894 5893 5892 5891 5889 5888 5886 5884 5882 5880 5879 5877 5875 5873 5872 5871 5869 5869 5868 5867 5867 5866 5866 5865 5865 5865 5864 5864 5863 5862 5862 5861 5860 5859 5858 5857 5856 5855 5853 5852
5893 5892 5892 5891 5890 5889 5888 5886 5885 5883 5882 5880 5878 5876 5874 5872 5871 5869 5868 5867 5866 5864 5863 5863 5862 5861 5860 5860 5860 5859 5858 5858 5857 5856 5855 5854 5853 5852 5851 5849 5848 5846 5844
5888 5887 5887 5887 5886 5885 5884 5883 5882 5880 5879 5877 5875 5873 5872 5870 5868 5866 5864 5863 5862 5861 5859 5858 5857 5857 5856 5855 5854 5854 5853 5852 5851 5850 5849 5848 5847 5845 5844 5842 5841 5839 5837
5884 5884 5883 5883 5882 5881 5880 5879 5878 5876 5875 5873 5871 5869 5868 5866 5864 5862 5861 5859 5857 5856 5855 5854 5853 5852 5851 5849 5849 5848 5847 5846 5845 5844 5843 5841 5840 5838 5837 5835 5833 5832 5830
5878 5878 5878 5877 5877 5876 5875 5874 5873 5871 5870 5868 5867 5865 5863 5861 5860 5858 5856 5855 5853 5852 5850 5849 5848 5846 5845 5844 5842 5841 5840 5839 5838 5837 5836 5834 5832 5831 5829 5827 5826 5824 5822
5872 5872 5871 5871 5871 5870 5869 5868 5867 5866 5865 5863 5861 5860 5858 5856 5854 5853 5851 5850 5848 5847 5845 5844 5842 5841 5839 5838 5836 5834 5833 5832 5831 5830 5828 5827 5825 5823 5821 5819 5818 5816 5814
5866 5865 5865 5865 5864 5863 5863 5862 5861 5859 5858 5857 5855 5854 5852 5850 5848 5847 5845 5844 5842 5841 5839 5838 5836 5834 5833 5831 5829 5827 5826 5825 5824 5822 5821 5819 5817 5815 5813 5811 5809 5807 5804
5858 5858 5858 5857 5857 5856 5855 5854 5853 5852 5851 5850 5848 5847 5845 5843 5842 5840 5838 5837 5835 5834 5832 5830 5829 5827 5826 5824 5822 5820 5819 5817 5816 5814 5812 5810 5808 5806 5804 5802 5800 5797 5795
5850 5849 5849 5849 5848 5848 5847 5846 5845 5844 5843 5842 5840 5838 5837 5836 5834 5832 5831 5829 5827 5826 5824 5822 5821 5819 5818 5816 5815 5812 5811 5809 5807 5805 5803 5801 5799 5797 5795 5793 5790 5788 5786
5840 5840 5840 5840 5839 5839 5838 5838 5837 5836 5834 5833 5832 5830 5829 5827 5826 5824 5822 5821 5819 5817 5816 5814 5812 5811 5809 5807 5806 5804 5802 5800 5798 5796 5794 5792 5790 5788 5785 5783 5781 5779 5776
5831 5831 5831 5830 5830 5830 5829 5829 5828 5827 5825 5824 5823 5821 5820 5819 5817 5816 5814 5812 5810 5809 5807 5805 5803 5802 5800 5798 5796 5794 5792 5790 5788 5786 5784 5782 5780 5778 5776 5773 5771 5769 5767